User: anonymous   Login
Location: *
(43.4667°N, 11.6833°E)
Time: 05:25:21
(UTC+00:00)
Language:

Cosmos 1072 Rocket - Orbit

View from above orbital plane
View from above orbital plane
View from above satellite
View from above satellite

Ground track
Ground track

The orbit data is extracted from the following two-line orbital elements,

1 11239U 79003B   19262.22027203  .00000008  00000-0 -67635-5 0  9994
2 11239  82.9411 196.9057 0039339 250.8441 225.1490 13.75828626 41164
Epoch (UTC): 19 September 2019 05:17:11
Eccentricity: 0.0039339
inclination: 82.9411°
perigee height: 950 km
apogee height: 1007 km
right ascension of ascending node: 196.9057°
argument of perigee: 250.8441°
revolutions per day: 13.75828626
mean anomaly at epoch: 225.1490°
orbit number at epoch: 4116

The dashed part of the orbit path shows where the satellite is in the earth's shadow,  

DLR